カタログに戻る

CZ-3C DEB

運用中GTO
NORAD 40195·DEBRIS·🇨🇳 China

打ち上げ Feb 24, 2012 から Xichang Satellite Launch Center

Loading…

TLE

古いSource: Space-Track

元期: Sep 2, 2026, 20:16 UTC

1 40195U 12008E   26245.84454476  .00000286  00000-0  53628-3 0  9994
2 40195  19.9858 150.8637 7121445 264.4618  18.0446  2.39941858 19008

AllMySatでCZ-3C DEBをリアルタイム追跡

Download on the App Store